Flag for Canada Weather past 2 weeks in Cranbrook, British Columbia, Canada

Now
72 °F

Partly sunny.


Feels Like: 77 °F
Forecast: 52 / 90 °F
Wind: 3 mph from North

Location: Cranbrook

Current Time: Jul 30, 2015 at 12:29:48 PM

Latest Report: Jul 30, 2015 at 12:00 PM


Visibility: 45 mi

Pressure: 30.21 "Hg (27.12 "Hg at 933m altitude)

Humidity: 36%

Dew point: 43 °F

Location of CranbrookLocation

Historic Weather in Cranbrook — Graph

°F

Cranbrook temperature yesterday

Maximum temperature yesterday: 82 °F (at 3:00 PM)
Minimum temperature yesterday: 50 °F (at 6:00 AM)
Average temperature yesterday: 66 °F

Past Weeks' High & Low Weather Summary

 TemperatureHumidityPressure
High90 °F (Jul 19, 5:00 PM)100% (Jul 26, 1:00 AM)30.25 "Hg (Jul 26, 1:00 AM)
Low41 °F (Jul 28, 5:00 AM)16% (Jul 23, 5:00 PM)29.66 "Hg (Jul 22, 12:00 AM)
Average65 °F51%29.94 "Hg
* Reported Jul 15 11:00 AM — Jul 30 11:00 AM, Cranbrook, Weather by CustomWeather, © 2015

Note: Actual official high and low records may vary slightly from our data, if they occured in-between our weather recording intervals... More about our weather records

Advertising

Cranbrook weather history for previous 24 hours

 ConditionsComfort  
Time TempWeatherWind HumidityBarometerVisibility
11:00 AM
Thu, Jul 30
68 °FPassing clouds.3 mph40%30.23 "Hg45 mi
10:00 AM64 °FPassing clouds.No wind46%30.25 "Hg45 mi
9:00 AM61 °FPassing clouds.3 mph52%30.25 "Hg45 mi
8:00 AM55 °FClear.5 mph59%30.25 "Hg45 mi
7:00 AM54 °FClear.6 mph63%30.24 "Hg25 mi
6:00 AM52 °FClear.6 mph67%30.22 "Hg25 mi
5:00 AM54 °FClear.3 mph63%30.21 "Hg25 mi
4:00 AM54 °FClear.5 mph67%30.20 "Hg25 mi
3:00 AM54 °FClear.3 mph63%30.19 "Hg25 mi
2:00 AM59 °FClear.6 mph51%30.18 "Hg25 mi
1:00 AM57 °FClear.2 mph55%30.18 "Hg25 mi
12:00 AM63 °FClear.6 mph49%30.16 "Hg25 mi
11:00 PM
Wed, Jul 29
66 °FPassing clouds.6 mph46%30.16 "Hg25 mi
10:00 PM68 °FPassing clouds.10 mph43%30.15 "Hg25 mi
9:00 PM77 °FPassing clouds.5 mph24%30.11 "Hg25 mi
8:00 PM79 °FPassing clouds.7 mph23%30.11 "Hg25 mi
7:00 PM81 °FScattered clouds.7 mph20%30.11 "Hg25 mi
6:00 PM82 °FScattered clouds.7 mph19%30.10 "Hg25 mi
5:00 PM81 °FPartly sunny.12 mph20%30.10 "Hg25 mi
4:00 PM81 °FPartly sunny.10 mph18%30.10 "Hg25 mi
3:00 PM82 °FPartly sunny.9 mph20%30.09 "Hg25 mi
2:00 PM79 °FPartly sunny.8 mph30%30.11 "Hg25 mi
1:00 PM75 °FScattered clouds.9 mph36%30.12 "Hg25 mi
12:00 PM72 °FScattered clouds.12 mph38%30.15 "Hg25 mi
Weather by CustomWeather, © 2015

See weather overviewHow to use our weather pages